| time (UTC) | temp F | wind direction | speed MPH | gust MPH | rain 1hr in | rain 24hr in | rain mn in | humidity % | barometer mb |
| 20260902173018 | 81 | 86 | 3.0 | 7.0 | 0.00 | 0.00 | 0.00 | 61 | 1024.2 |
| 20260902171517 | 83 | 150 | 4.0 | 9.0 | 0.00 | 0.00 | 0.00 | 59 | 1024.2 |
| 20260902170022 | 83 | 104 | 3.0 | 7.0 | 0.00 | 0.00 | 0.00 | 58 | 1024.1 |
| 20260902164523 | 83 | 150 | 2.0 | 10.0 | 0.00 | 0.00 | 0.00 | 58 | 1024.1 |
| 20260902163014 | 84 | 111 | 4.0 | 9.0 | 0.00 | 0.00 | 0.00 | 57 | 1024.1 |
| 20260902161523 | 84 | 113 | 3.0 | 10.0 | 0.00 | 0.00 | 0.00 | 54 | 1024.2 |
| 20260902160014 | 85 | 99 | 4.0 | 7.0 | 0.00 | 0.00 | 0.00 | 53 | 1024.2 |
| 20260902154517 | 85 | 100 | 4.0 | 10.0 | 0.00 | 0.00 | 0.00 | 52 | 1024.2 |
| 20260902153015 | 86 | 115 | 3.0 | 11.0 | 0.00 | 0.00 | 0.00 | 51 | 1024.3 |
| 20260902151512 | 87 | 126 | 4.0 | 10.0 | 0.00 | 0.00 | 0.00 | 48 | 1024.3 |
| 20260902150018 | 87 | 131 | 3.0 | 13.0 | 0.00 | 0.00 | 0.00 | 47 | 1024.3 |
| 20260902144510 | 87 | 221 | 1.0 | 7.0 | 0.00 | 0.00 | 0.00 | 46 | 1024.4 |
| 20260902143007 | 87 | 76 | 2.0 | 13.0 | 0.00 | 0.00 | 0.00 | 45 | 1024.6 |
| 20260902141503 | 87 | 174 | 5.0 | 11.0 | 0.00 | 0.00 | 0.00 | 43 | 1024.7 |
| 20260902140002 | 88 | 82 | 3.0 | 10.0 | 0.00 | 0.00 | 0.00 | 43 | 1024.8 |
| 20260902134504 | 88 | 152 | 4.0 | 11.0 | 0.00 | 0.00 | 0.00 | 41 | 1024.8 |
| 20260902133001 | 88 | 94 | 3.0 | 8.0 | 0.00 | 0.00 | 0.00 | 41 | 1025.0 |
| 20260902131607 | 88 | 110 | 4.0 | 13.0 | 0.00 | 0.00 | 0.00 | 41 | 1025.1 |
| 20260902124600 | 88 | 188 | 6.0 | 12.0 | 0.00 | 0.00 | 0.00 | 41 | 1025.1 |
| 20260902123104 | 88 | 190 | 3.0 | 14.0 | 0.00 | 0.00 | 0.00 | 40 | 1025.1 |
| 20260902121608 | 87 | 146 | 2.0 | 12.0 | 0.00 | 0.00 | 0.00 | 42 | 1025.1 |
| 20260902120057 | 88 | 149 | 3.0 | 10.0 | 0.00 | 0.00 | 0.00 | 40 | 1025.1 |
| 20260902114557 | 89 | 115 | 6.0 | 12.0 | 0.00 | 0.00 | 0.00 | 39 | 1025.2 |
| 20260902113104 | 89 | 123 | 5.0 | 13.0 | 0.00 | 0.00 | 0.00 | 39 | 1025.1 |
| 20260902111556 | 88 | 240 | 3.0 | 12.0 | 0.00 | 0.00 | 0.00 | 42 | 1025.1 |
| 20260902110058 | 88 | 87 | 3.0 | 13.0 | 0.00 | 0.00 | 0.00 | 42 | 1025.1 |
| 20260902104608 | 89 | 100 | 0.0 | 3.0 | 0.00 | 0.00 | 0.00 | 43 | 1025.1 |
| 20260902103059 | 88 | 91 | 0.0 | 3.0 | 0.00 | 0.00 | 0.00 | 44 | 1025.2 |
| 20260902101552 | 87 | 125 | 1.0 | 8.0 | 0.00 | 0.00 | 0.00 | 46 | 1025.2 |
| 20260902100048 | 87 | 94 | 2.0 | 6.0 | 0.00 | 0.00 | 0.00 | 42 | 1025.2 |
| 20260902094545 | 87 | 131 | 1.0 | 7.0 | 0.00 | 0.00 | 0.00 | 46 | 1025.1 |
| 20260902093044 | 86 | 218 | 0.0 | 3.0 | 0.00 | 0.00 | 0.00 | 46 | 1025.2 |
| 20260902091541 | 85 | 135 | 0.0 | 5.0 | 0.00 | 0.00 | 0.00 | 50 | 1025.1 |
| 20260902090036 | 84 | 122 | 0.0 | 1.0 | 0.00 | 0.00 | 0.00 | 56 | 1025.0 |
| 20260902084532 | 83 | 121 | 0.0 | 0.0 | 0.00 | 0.00 | 0.00 | 59 | 1025.0 |
| 20260902083040 | 82 | 118 | 2.0 | 4.0 | 0.00 | 0.00 | 0.00 | 63 | 1024.9 |
| 20260902081529 | 80 | 258 | 0.0 | 2.0 | 0.00 | 0.00 | 0.00 | 68 | 1024.8 |
| 20260902080022 | 79 | 258 | 0.0 | 2.0 | 0.00 | 0.00 | 0.00 | 72 | 1024.7 |
| 20260902074517 | 77 | 257 | 0.0 | 2.0 | 0.00 | 0.00 | 0.00 | 76 | 1024.7 |
| 20260902073013 | 74 | 257 | 0.0 | 0.0 | 0.00 | 0.00 | 0.00 | 82 | 1024.7 |
| 20260902071509 | 72 | 257 | 0.0 | 1.0 | 0.00 | 0.00 | 0.00 | 83 | 1024.7 |
| 20260902070010 | 71 | 257 | 0.0 | 2.0 | 0.00 | 0.00 | 0.00 | 85 | 1024.6 |
| 20260902064502 | 69 | 257 | 0.0 | 0.0 | 0.00 | 0.00 | 0.00 | 89 | 1024.5 |
| 20260902063001 | 68 | 257 | 0.0 | 0.0 | 0.00 | 0.00 | 0.00 | 92 | 1024.2 |
| 20260902061601 | 67 | 257 | 0.0 | 0.0 | 0.00 | 0.00 | 0.00 | 94 | 1024.2 |
| 20260902060106 | 66 | 257 | 0.0 | 0.0 | 0.00 | 0.00 | 0.00 | 95 | 1023.9 |
| 20260902054608 | 66 | 257 | 0.0 | 0.0 | 0.00 | 0.00 | 0.00 | 95 | 1023.9 |
| 20260902053112 | 66 | 257 | 0.0 | 0.0 | 0.00 | 0.00 | 0.00 | 95 | 1023.8 |
| 20260902051609 | 66 | 257 | 0.0 | 0.0 | 0.00 | 0.00 | 0.00 | 96 | 1023.8 |
| 20260902050059 | 65 | 257 | 0.0 | 0.0 | 0.00 | 0.00 | 0.00 | 96 | 1023.7 |
| 20260902044553 | 66 | 257 | 0.0 | 0.0 | 0.00 | 0.00 | 0.00 | 95 | 1023.6 |
| 20260902043111 | 66 | 257 | 0.0 | 0.0 | 0.00 | 0.00 | 0.00 | 95 | 1023.6 |
| 20260902041551 | 66 | 257 | 0.0 | 0.0 | 0.00 | 0.00 | 0.00 | 94 | 1023.5 |
| 20260902040050 | 66 | 257 | 0.0 | 0.0 | 0.00 | 0.00 | 0.00 | 94 | 1023.7 |
| 20260902034547 | 67 | 257 | 0.0 | 0.0 | 0.00 | 0.00 | 0.00 | 93 | 1023.6 |
| 20260902033047 | 67 | 257 | 0.0 | 0.0 | 0.00 | 0.00 | 0.00 | 94 | 1023.8 |
| 20260902031547 | 67 | 257 | 0.0 | 0.0 | 0.00 | 0.00 | 0.00 | 94 | 1023.9 |
| 20260902030045 | 67 | 257 | 0.0 | 0.0 | 0.00 | 0.00 | 0.00 | 94 | 1023.8 |
| 20260902024544 | 67 | 257 | 0.0 | 0.0 | 0.00 | 0.00 | 0.00 | 93 | 1023.7 |
| 20260902023049 | 68 | 257 | 0.0 | 0.0 | 0.00 | 0.00 | 0.00 | 93 | 1023.9 |
| 20260902021543 | 67 | 257 | 0.0 | 0.0 | 0.00 | 0.00 | 0.00 | 93 | 1023.8 |
| 20260902020041 | 68 | 257 | 0.0 | 0.0 | 0.00 | 0.00 | 0.00 | 92 | 1023.9 |
| 20260902014544 | 68 | 257 | 0.0 | 0.0 | 0.00 | 0.00 | 0.00 | 92 | 1023.8 |
| 20260902013040 | 68 | 257 | 0.0 | 0.0 | 0.00 | 0.00 | 0.00 | 92 | 1024.1 |
| 20260902011550 | 68 | 257 | 0.0 | 0.0 | 0.00 | 0.00 | 0.00 | 91 | 1024.2 |
| 20260902010036 | 69 | 257 | 0.0 | 0.0 | 0.00 | 0.00 | 0.00 | 90 | 1024.3 |
| 20260902004537 | 69 | 257 | 0.0 | 0.0 | 0.00 | 0.00 | 0.00 | 90 | 1024.2 |
| 20260902003036 | 69 | 257 | 0.0 | 0.0 | 0.00 | 0.00 | 0.00 | 90 | 1024.3 |
| 20260902001535 | 69 | 257 | 0.0 | 1.0 | 0.00 | 0.00 | 0.00 | 89 | 1024.4 |
| 20260902000039 | 69 | 257 | 0.0 | 0.0 | 0.00 | 0.00 | 0.00 | 89 | 1024.3 |
| 20260901234532 | 69 | 257 | 0.0 | 1.0 | 0.00 | 0.00 | 0.00 | 89 | 1024.2 |
| 20260901233032 | 69 | 257 | 0.0 | 0.0 | 0.00 | 0.00 | 0.00 | 88 | 1024.1 |
| 20260901231539 | 69 | 257 | 0.0 | 0.0 | 0.00 | 0.00 | 0.00 | 88 | 1024.2 |
| 20260901230030 | 69 | 257 | 0.0 | 0.0 | 0.00 | 0.00 | 0.00 | 88 | 1024.2 |
| 20260901224528 | 69 | 257 | 0.0 | 0.0 | 0.00 | 0.00 | 0.00 | 87 | 1024.0 |
| 20260901223026 | 69 | 257 | 0.0 | 0.0 | 0.00 | 0.00 | 0.00 | 86 | 1023.8 |
| 20260901221555 | 70 | 257 | 0.0 | 0.0 | 0.00 | 0.00 | 0.00 | 85 | 1023.8 |
| 20260901220036 | 70 | 257 | 0.0 | 0.0 | 0.00 | 0.00 | 0.00 | 86 | 1023.6 |
| 20260901214520 | 70 | 257 | 0.0 | 0.0 | 0.00 | 0.00 | 0.00 | 86 | 1023.6 |
| 20260901213023 | 70 | 257 | 0.0 | 0.0 | 0.00 | 0.00 | 0.00 | 85 | 1023.4 |
| 20260901211525 | 71 | 257 | 0.0 | 0.0 | 0.00 | 0.00 | 0.00 | 83 | 1023.2 |
| 20260901210021 | 72 | 257 | 0.0 | 0.0 | 0.00 | 0.00 | 0.00 | 82 | 1023.1 |
| 20260901204521 | 72 | 257 | 0.0 | 0.0 | 0.00 | 0.00 | 0.00 | 80 | 1023.0 |
| 20260901203017 | 74 | 257 | 0.0 | 1.0 | 0.00 | 0.00 | 0.00 | 78 | 1022.9 |
| 20260901201517 | 74 | 257 | 0.0 | 0.0 | 0.00 | 0.00 | 0.00 | 78 | 1022.8 |
| 20260901200031 | 75 | 257 | 0.0 | 1.0 | 0.00 | 0.00 | 0.00 | 76 | 1022.7 |
| 20260901194516 | 75 | 257 | 0.0 | 2.0 | 0.00 | 0.00 | 0.00 | 76 | 1022.5 |
| 20260901193016 | 75 | 257 | 0.0 | 1.0 | 0.00 | 0.00 | 0.00 | 75 | 1022.5 |
| 20260901191522 | 76 | 257 | 0.0 | 1.0 | 0.00 | 0.00 | 0.00 | 75 | 1022.4 |
| 20260901190022 | 76 | 258 | 0.0 | 0.0 | 0.00 | 0.00 | 0.00 | 73 | 1022.1 |
| 20260901184514 | 77 | 259 | 0.0 | 1.0 | 0.00 | 0.00 | 0.00 | 71 | 1021.9 |
| 20260901183014 | 78 | 271 | 0.0 | 2.0 | 0.00 | 0.00 | 0.00 | 70 | 1021.7 |
| 20260901181519 | 79 | 269 | 0.0 | 5.0 | 0.00 | 0.00 | 0.00 | 69 | 1021.7 |
| 20260901180010 | 79 | 286 | 2.0 | 5.0 | 0.00 | 0.00 | 0.00 | 67 | 1022.2 |
| 20260901174509 | 80 | 280 | 1.0 | 6.0 | 0.00 | 0.00 | 0.00 | 66 | 1022.3 |